owner,sensor,date,latitude,longitude,vertical_datum,sea_water_practical_salinity,qcFlag 
WAVCIS,ioos:station:WAVCIS:CSI16:1,2009-09-01T21:00:00Z,29.4012,-89.0355,1.0,29.562,11111222 
WAVCIS,ioos:station:WAVCIS:CSI16:1,2009-09-01T21:15:00Z,29.4012,-89.0355,1.0,29.539,11111222 
WAVCIS,ioos:station:WAVCIS:CSI16:1,2009-09-01T21:30:00Z,29.4012,-89.0355,1.0,29.434,11111222 
WAVCIS,ioos:station:WAVCIS:CSI16:1,2009-09-01T21:45:00Z,29.4012,-89.0355,1.0,29.384,11111222 
WAVCIS,ioos:station:WAVCIS:CSI16:1,2009-09-01T22:00:00Z,29.4012,-89.0355,1.0,29.415,11111222 
WAVCIS,ioos:station:WAVCIS:CSI16:1,2009-09-01T22:15:00Z,29.4012,-89.0355,1.0,29.324,11111222 
WAVCIS,ioos:station:WAVCIS:CSI16:1,2009-09-01T22:30:00Z,29.4012,-89.0355,1.0,29.478,11111222 
WAVCIS,ioos:station:WAVCIS:CSI16:1,2009-09-01T22:45:00Z,29.4012,-89.0355,1.0,29.424,11111222 
WAVCIS,ioos:station:WAVCIS:CSI16:1,2009-09-01T23:00:00Z,29.4012,-89.0355,1.0,29.384,11111222 
WAVCIS,ioos:station:WAVCIS:CSI16:1,2009-09-01T23:15:00Z,29.4012,-89.0355,1.0,29.36,11111222 
WAVCIS,ioos:station:WAVCIS:CSI16:1,2009-09-01T23:30:00Z,29.4012,-89.0355,1.0,29.351,11111222 
WAVCIS,ioos:station:WAVCIS:CSI16:1,2009-09-01T23:45:00Z,29.4012,-89.0355,1.0,29.39,11111222 
WAVCIS,ioos:station:WAVCIS:CSI16:1,2009-09-02T00:00:00Z,29.4012,-89.0355,1.0,29.371,11111222 
WAVCIS,ioos:station:WAVCIS:CSI16:1,2009-09-02T00:15:00Z,29.4012,-89.0355,1.0,29.369,11111222 
WAVCIS,ioos:station:WAVCIS:CSI16:1,2009-09-02T00:30:00Z,29.4012,-89.0355,1.0,29.399,11111222 
WAVCIS,ioos:station:WAVCIS:CSI16:1,2009-09-02T00:45:00Z,29.4012,-89.0355,1.0,29.467,11111222 
WAVCIS,ioos:station:WAVCIS:CSI16:1,2009-09-02T01:00:00Z,29.4012,-89.0355,1.0,29.619,11111222 
WAVCIS,ioos:station:WAVCIS:CSI16:1,2009-09-02T01:15:00Z,29.4012,-89.0355,1.0,29.665,11111222 
WAVCIS,ioos:station:WAVCIS:CSI16:1,2009-09-02T01:30:00Z,29.4012,-89.0355,1.0,29.656,11111222 
WAVCIS,ioos:station:WAVCIS:CSI16:1,2009-09-02T01:45:00Z,29.4012,-89.0355,1.0,29.684,11111222 
WAVCIS,ioos:station:WAVCIS:CSI16:1,2009-09-02T02:00:00Z,29.4012,-89.0355,1.0,29.695,11111222 
WAVCIS,ioos:station:WAVCIS:CSI16:1,2009-09-02T02:15:00Z,29.4012,-89.0355,1.0,29.722,11111222 
WAVCIS,ioos:station:WAVCIS:CSI16:1,2009-09-02T02:30:00Z,29.4012,-89.0355,1.0,29.731,11111222 
WAVCIS,ioos:station:WAVCIS:CSI16:1,2009-09-02T02:45:00Z,29.4012,-89.0355,1.0,29.763,11111222 
WAVCIS,ioos:station:WAVCIS:CSI16:1,2009-09-02T03:00:00Z,29.4012,-89.0355,1.0,29.767,11111222 
WAVCIS,ioos:station:WAVCIS:CSI16:1,2009-09-02T03:15:00Z,29.4012,-89.0355,1.0,29.763,11111222 
WAVCIS,ioos:station:WAVCIS:CSI16:1,2009-09-02T03:30:00Z,29.4012,-89.0355,1.0,29.809,11111222 
WAVCIS,ioos:station:WAVCIS:CSI16:1,2009-09-02T03:45:00Z,29.4012,-89.0355,1.0,29.807,11111222 
WAVCIS,ioos:station:WAVCIS:CSI16:1,2009-09-02T04:00:00Z,29.4012,-89.0355,1.0,29.783,11111222 
WAVCIS,ioos:station:WAVCIS:CSI16:1,2009-09-02T04:15:00Z,29.4012,-89.0355,1.0,29.781,11111222 
WAVCIS,ioos:station:WAVCIS:CSI16:1,2009-09-02T04:30:00Z,29.4012,-89.0355,1.0,29.806,11111222 
WAVCIS,ioos:station:WAVCIS:CSI16:1,2009-09-02T04:45:00Z,29.4012,-89.0355,1.0,29.736,11111222 
WAVCIS,ioos:station:WAVCIS:CSI16:1,2009-09-02T05:00:00Z,29.4012,-89.0355,1.0,29.687,11111222 
WAVCIS,ioos:station:WAVCIS:CSI16:1,2009-09-02T05:15:00Z,29.4012,-89.0355,1.0,29.715,11111222 
WAVCIS,ioos:station:WAVCIS:CSI16:1,2009-09-02T05:30:00Z,29.4012,-89.0355,1.0,29.668,11111222 
WAVCIS,ioos:station:WAVCIS:CSI16:1,2009-09-02T05:45:00Z,29.4012,-89.0355,1.0,29.664,11111222 
WAVCIS,ioos:station:WAVCIS:CSI16:1,2009-09-02T06:00:00Z,29.4012,-89.0355,1.0,29.692,11111222 
WAVCIS,ioos:station:WAVCIS:CSI16:1,2009-09-02T06:15:00Z,29.4012,-89.0355,1.0,29.682,11111222 
WAVCIS,ioos:station:WAVCIS:CSI16:1,2009-09-02T06:30:00Z,29.4012,-89.0355,1.0,29.671,11111222 
WAVCIS,ioos:station:WAVCIS:CSI16:1,2009-09-02T06:45:00Z,29.4012,-89.0355,1.0,29.695,11111222 
WAVCIS,ioos:station:WAVCIS:CSI16:1,2009-09-02T07:00:00Z,29.4012,-89.0355,1.0,29.483,11111222 
WAVCIS,ioos:station:WAVCIS:CSI16:1,2009-09-02T07:15:00Z,29.4012,-89.0355,1.0,29.577,11111222 
WAVCIS,ioos:station:WAVCIS:CSI16:1,2009-09-02T07:30:00Z,29.4012,-89.0355,1.0,29.629,11111222 
WAVCIS,ioos:station:WAVCIS:CSI16:1,2009-09-02T07:45:00Z,29.4012,-89.0355,1.0,29.626,11111222 
WAVCIS,ioos:station:WAVCIS:CSI16:1,2009-09-02T08:00:00Z,29.4012,-89.0355,1.0,29.61,11111222 
WAVCIS,ioos:station:WAVCIS:CSI16:1,2009-09-02T08:15:00Z,29.4012,-89.0355,1.0,29.785,11111222 
WAVCIS,ioos:station:WAVCIS:CSI16:1,2009-09-02T08:30:00Z,29.4012,-89.0355,1.0,29.808,11111222 
WAVCIS,ioos:station:WAVCIS:CSI16:1,2009-09-02T08:45:00Z,29.4012,-89.0355,1.0,29.83,11111222 
WAVCIS,ioos:station:WAVCIS:CSI16:1,2009-09-02T09:00:00Z,29.4012,-89.0355,1.0,29.841,11111222 
WAVCIS,ioos:station:WAVCIS:CSI16:1,2009-09-02T09:15:00Z,29.4012,-89.0355,1.0,29.801,11111222 
WAVCIS,ioos:station:WAVCIS:CSI16:1,2009-09-02T09:30:00Z,29.4012,-89.0355,1.0,29.851,11111222 
WAVCIS,ioos:station:WAVCIS:CSI16:1,2009-09-02T09:45:00Z,29.4012,-89.0355,1.0,29.797,11111222 
WAVCIS,ioos:station:WAVCIS:CSI16:1,2009-09-02T10:00:00Z,29.4012,-89.0355,1.0,29.78,11111222 
WAVCIS,ioos:station:WAVCIS:CSI16:1,2009-09-02T10:15:00Z,29.4012,-89.0355,1.0,29.941,11111222 
WAVCIS,ioos:station:WAVCIS:CSI16:1,2009-09-02T10:30:00Z,29.4012,-89.0355,1.0,29.778,11111222 
WAVCIS,ioos:station:WAVCIS:CSI16:1,2009-09-02T10:45:00Z,29.4012,-89.0355,1.0,29.824,11111222 
WAVCIS,ioos:station:WAVCIS:CSI16:1,2009-09-02T11:00:00Z,29.4012,-89.0355,1.0,29.807,11111222 
WAVCIS,ioos:station:WAVCIS:CSI16:1,2009-09-02T11:15:00Z,29.4012,-89.0355,1.0,29.848,11111222 
WAVCIS,ioos:station:WAVCIS:CSI16:1,2009-09-02T11:30:00Z,29.4012,-89.0355,1.0,29.902,11111222 
WAVCIS,ioos:station:WAVCIS:CSI16:1,2009-09-02T11:45:00Z,29.4012,-89.0355,1.0,29.884,11111222 
WAVCIS,ioos:station:WAVCIS:CSI16:1,2009-09-02T12:00:00Z,29.4012,-89.0355,1.0,29.953,11111222 
WAVCIS,ioos:station:WAVCIS:CSI16:1,2009-09-02T12:15:00Z,29.4012,-89.0355,1.0,29.956,11111222 
WAVCIS,ioos:station:WAVCIS:CSI16:1,2009-09-02T12:30:00Z,29.4012,-89.0355,1.0,29.935,11111222 
WAVCIS,ioos:station:WAVCIS:CSI16:1,2009-09-02T12:45:00Z,29.4012,-89.0355,1.0,29.876,11111222 
WAVCIS,ioos:station:WAVCIS:CSI16:1,2009-09-02T13:00:00Z,29.4012,-89.0355,1.0,29.95,11111222 
WAVCIS,ioos:station:WAVCIS:CSI16:1,2009-09-02T13:15:00Z,29.4012,-89.0355,1.0,29.931,11111222 
WAVCIS,ioos:station:WAVCIS:CSI16:1,2009-09-02T13:30:00Z,29.4012,-89.0355,1.0,29.897,11111222 
WAVCIS,ioos:station:WAVCIS:CSI16:1,2009-09-02T13:45:00Z,29.4012,-89.0355,1.0,29.906,11111222 
WAVCIS,ioos:station:WAVCIS:CSI16:1,2009-09-02T14:00:00Z,29.4012,-89.0355,1.0,29.953,11111222 
WAVCIS,ioos:station:WAVCIS:CSI16:1,2009-09-02T14:15:00Z,29.4012,-89.0355,1.0,29.915,11111222 
WAVCIS,ioos:station:WAVCIS:CSI16:1,2009-09-02T14:30:00Z,29.4012,-89.0355,1.0,29.909,11111222 
WAVCIS,ioos:station:WAVCIS:CSI16:1,2009-09-02T14:45:00Z,29.4012,-89.0355,1.0,29.9,11111222 
WAVCIS,ioos:station:WAVCIS:CSI16:1,2009-09-02T15:00:00Z,29.4012,-89.0355,1.0,29.902,11111222 
WAVCIS,ioos:station:WAVCIS:CSI16:1,2009-09-02T15:15:00Z,29.4012,-89.0355,1.0,29.911,11111222 
WAVCIS,ioos:station:WAVCIS:CSI16:1,2009-09-02T15:30:00Z,29.4012,-89.0355,1.0,29.925,11111222 
WAVCIS,ioos:station:WAVCIS:CSI16:1,2009-09-02T15:45:00Z,29.4012,-89.0355,1.0,29.92,11111222 
WAVCIS,ioos:station:WAVCIS:CSI16:1,2009-09-02T16:00:00Z,29.4012,-89.0355,1.0,29.919,11111222 
WAVCIS,ioos:station:WAVCIS:CSI16:1,2009-09-02T16:15:00Z,29.4012,-89.0355,1.0,29.946,11111222 
WAVCIS,ioos:station:WAVCIS:CSI16:1,2009-09-02T16:30:00Z,29.4012,-89.0355,1.0,29.948,11111222 
WAVCIS,ioos:station:WAVCIS:CSI16:1,2009-09-02T16:45:00Z,29.4012,-89.0355,1.0,29.961,11111222 
WAVCIS,ioos:station:WAVCIS:CSI16:1,2009-09-02T17:00:00Z,29.4012,-89.0355,1.0,29.958,11111222 
WAVCIS,ioos:station:WAVCIS:CSI16:1,2009-09-02T17:15:00Z,29.4012,-89.0355,1.0,29.989,11111222 
WAVCIS,ioos:station:WAVCIS:CSI16:1,2009-09-02T17:30:00Z,29.4012,-89.0355,1.0,29.991,11111222 
WAVCIS,ioos:station:WAVCIS:CSI16:1,2009-09-02T17:45:00Z,29.4012,-89.0355,1.0,30.008,11111222 
WAVCIS,ioos:station:WAVCIS:CSI16:1,2009-09-02T18:00:00Z,29.4012,-89.0355,1.0,30.025,11111222 
WAVCIS,ioos:station:WAVCIS:CSI16:1,2009-09-02T18:15:00Z,29.4012,-89.0355,1.0,30.038,11111222 
WAVCIS,ioos:station:WAVCIS:CSI16:1,2009-09-02T18:30:00Z,29.4012,-89.0355,1.0,30.047,11111222 
WAVCIS,ioos:station:WAVCIS:CSI16:1,2009-09-02T18:45:00Z,29.4012,-89.0355,1.0,30.052,11111222 
WAVCIS,ioos:station:WAVCIS:CSI16:1,2009-09-02T19:00:00Z,29.4012,-89.0355,1.0,30.048,11111222 
WAVCIS,ioos:station:WAVCIS:CSI16:1,2009-09-02T19:15:00Z,29.4012,-89.0355,1.0,30.064,11111222 
WAVCIS,ioos:station:WAVCIS:CSI16:1,2009-09-02T19:30:00Z,29.4012,-89.0355,1.0,30.104,11111222 
WAVCIS,ioos:station:WAVCIS:CSI16:1,2009-09-02T19:45:00Z,29.4012,-89.0355,1.0,30.114,11111222 
WAVCIS,ioos:station:WAVCIS:CSI16:1,2009-09-02T20:00:00Z,29.4012,-89.0355,1.0,30.121,11111222 
WAVCIS,ioos:station:WAVCIS:CSI16:1,2009-09-02T20:15:00Z,29.4012,-89.0355,1.0,30.107,11111222 
WAVCIS,ioos:station:WAVCIS:CSI16:1,2009-09-02T20:30:00Z,29.4012,-89.0355,1.0,30.167,11111222 
WAVCIS,ioos:station:WAVCIS:CSI16:1,2009-09-02T20:45:00Z,29.4012,-89.0355,1.0,30.184,11111222 
WAVCIS,ioos:station:WAVCIS:CSI16:1,2009-09-02T21:00:00Z,29.4012,-89.0355,1.0,30.196,11111222 
WAVCIS,ioos:station:WAVCIS:CSI16:1,2009-09-02T21:15:00Z,29.4012,-89.0355,1.0,30.206,11111222 
WAVCIS,ioos:station:WAVCIS:CSI16:1,2009-09-02T21:30:00Z,29.4012,-89.0355,1.0,30.245,11111222 
WAVCIS,ioos:station:WAVCIS:CSI16:1,2009-09-02T21:45:00Z,29.4012,-89.0355,1.0,30.231,11111222 
WAVCIS,ioos:station:WAVCIS:CSI16:1,2009-09-02T22:00:00Z,29.4012,-89.0355,1.0,29.599,11111222 
WAVCIS,ioos:station:WAVCIS:CSI16:1,2009-09-02T22:15:00Z,29.4012,-89.0355,1.0,30.243,11111222 
WAVCIS,ioos:station:WAVCIS:CSI16:1,2009-09-02T22:30:00Z,29.4012,-89.0355,1.0,29.803,11111222 
WAVCIS,ioos:station:WAVCIS:CSI16:1,2009-09-02T22:45:00Z,29.4012,-89.0355,1.0,30.259,11111222 
WAVCIS,ioos:station:WAVCIS:CSI16:1,2009-09-02T23:00:00Z,29.4012,-89.0355,1.0,30.242,11111222 
WAVCIS,ioos:station:WAVCIS:CSI16:1,2009-09-02T23:15:00Z,29.4012,-89.0355,1.0,30.271,11111222 
WAVCIS,ioos:station:WAVCIS:CSI16:1,2009-09-02T23:30:00Z,29.4012,-89.0355,1.0,30.253,11111222 
WAVCIS,ioos:station:WAVCIS:CSI16:1,2009-09-02T23:45:00Z,29.4012,-89.0355,1.0,30.243,11111222 
WAVCIS,ioos:station:WAVCIS:CSI16:1,2009-09-03T00:00:00Z,29.4012,-89.0355,1.0,30.235,11111222 
WAVCIS,ioos:station:WAVCIS:CSI16:1,2009-09-03T00:15:00Z,29.4012,-89.0355,1.0,30.27,11111222 
WAVCIS,ioos:station:WAVCIS:CSI16:1,2009-09-03T00:30:00Z,29.4012,-89.0355,1.0,30.296,11111222 
WAVCIS,ioos:station:WAVCIS:CSI16:1,2009-09-03T00:45:00Z,29.4012,-89.0355,1.0,30.297,11111222 
WAVCIS,ioos:station:WAVCIS:CSI16:1,2009-09-03T01:00:00Z,29.4012,-89.0355,1.0,30.297,11111222 
WAVCIS,ioos:station:WAVCIS:CSI16:1,2009-09-03T01:15:00Z,29.4012,-89.0355,1.0,30.306,11111222 
WAVCIS,ioos:station:WAVCIS:CSI16:1,2009-09-03T01:30:00Z,29.4012,-89.0355,1.0,30.314,11111222 
WAVCIS,ioos:station:WAVCIS:CSI16:1,2009-09-03T01:45:00Z,29.4012,-89.0355,1.0,30.309,11111222 
WAVCIS,ioos:station:WAVCIS:CSI16:1,2009-09-03T02:00:00Z,29.4012,-89.0355,1.0,30.298,11111222 
WAVCIS,ioos:station:WAVCIS:CSI16:1,2009-09-03T02:15:00Z,29.4012,-89.0355,1.0,30.296,11111222 
WAVCIS,ioos:station:WAVCIS:CSI16:1,2009-09-03T02:30:00Z,29.4012,-89.0355,1.0,30.291,11111222 
WAVCIS,ioos:station:WAVCIS:CSI16:1,2009-09-03T02:45:00Z,29.4012,-89.0355,1.0,30.345,11111222 
WAVCIS,ioos:station:WAVCIS:CSI16:1,2009-09-03T03:00:00Z,29.4012,-89.0355,1.0,30.331,11111222 
WAVCIS,ioos:station:WAVCIS:CSI16:1,2009-09-03T03:15:00Z,29.4012,-89.0355,1.0,30.328,11111222 
WAVCIS,ioos:station:WAVCIS:CSI16:1,2009-09-03T03:30:00Z,29.4012,-89.0355,1.0,30.385,11111222 
WAVCIS,ioos:station:WAVCIS:CSI16:1,2009-09-03T03:45:00Z,29.4012,-89.0355,1.0,30.353,11111222 
WAVCIS,ioos:station:WAVCIS:CSI16:1,2009-09-03T04:00:00Z,29.4012,-89.0355,1.0,30.427,11111222 
WAVCIS,ioos:station:WAVCIS:CSI16:1,2009-09-03T04:15:00Z,29.4012,-89.0355,1.0,30.431,11111222 
WAVCIS,ioos:station:WAVCIS:CSI16:1,2009-09-03T04:30:00Z,29.4012,-89.0355,1.0,30.476,11111222 
WAVCIS,ioos:station:WAVCIS:CSI16:1,2009-09-03T04:45:00Z,29.4012,-89.0355,1.0,30.496,11111222 
WAVCIS,ioos:station:WAVCIS:CSI16:1,2009-09-03T05:00:00Z,29.4012,-89.0355,1.0,30.368,11111222 
WAVCIS,ioos:station:WAVCIS:CSI16:1,2009-09-03T05:15:00Z,29.4012,-89.0355,1.0,30.343,11111222 
WAVCIS,ioos:station:WAVCIS:CSI16:1,2009-09-03T05:30:00Z,29.4012,-89.0355,1.0,30.348,11111222 
WAVCIS,ioos:station:WAVCIS:CSI16:1,2009-09-03T05:45:00Z,29.4012,-89.0355,1.0,30.529,11111222 
WAVCIS,ioos:station:WAVCIS:CSI16:1,2009-09-03T06:00:00Z,29.4012,-89.0355,1.0,30.87,11111222 
WAVCIS,ioos:station:WAVCIS:CSI16:1,2009-09-03T06:15:00Z,29.4012,-89.0355,1.0,30.602,11111222 
WAVCIS,ioos:station:WAVCIS:CSI16:1,2009-09-03T06:30:00Z,29.4012,-89.0355,1.0,30.958,11111222 
WAVCIS,ioos:station:WAVCIS:CSI16:1,2009-09-03T06:45:00Z,29.4012,-89.0355,1.0,30.785,11111222 
WAVCIS,ioos:station:WAVCIS:CSI16:1,2009-09-03T07:00:00Z,29.4012,-89.0355,1.0,30.831,11111222 
WAVCIS,ioos:station:WAVCIS:CSI16:1,2009-09-03T07:15:00Z,29.4012,-89.0355,1.0,30.55,11111222 
WAVCIS,ioos:station:WAVCIS:CSI16:1,2009-09-03T07:30:00Z,29.4012,-89.0355,1.0,30.709,11111222 
WAVCIS,ioos:station:WAVCIS:CSI16:1,2009-09-03T07:45:00Z,29.4012,-89.0355,1.0,30.797,11111222 
WAVCIS,ioos:station:WAVCIS:CSI16:1,2009-09-03T08:00:00Z,29.4012,-89.0355,1.0,30.68,11111222 
WAVCIS,ioos:station:WAVCIS:CSI16:1,2009-09-03T08:15:00Z,29.4012,-89.0355,1.0,30.527,11111222 
WAVCIS,ioos:station:WAVCIS:CSI16:1,2009-09-03T08:30:00Z,29.4012,-89.0355,1.0,30.495,11111222 
WAVCIS,ioos:station:WAVCIS:CSI16:1,2009-09-03T08:45:00Z,29.4012,-89.0355,1.0,30.48,11111222 
WAVCIS,ioos:station:WAVCIS:CSI16:1,2009-09-03T09:00:00Z,29.4012,-89.0355,1.0,30.537,11111222 
WAVCIS,ioos:station:WAVCIS:CSI16:1,2009-09-03T09:15:00Z,29.4012,-89.0355,1.0,30.549,11111222 
WAVCIS,ioos:station:WAVCIS:CSI16:1,2009-09-03T09:30:00Z,29.4012,-89.0355,1.0,30.552,11111222 
WAVCIS,ioos:station:WAVCIS:CSI16:1,2009-09-03T09:45:00Z,29.4012,-89.0355,1.0,30.53,11111222 
WAVCIS,ioos:station:WAVCIS:CSI16:1,2009-09-03T10:00:00Z,29.4012,-89.0355,1.0,30.574,11111222 
WAVCIS,ioos:station:WAVCIS:CSI16:1,2009-09-03T10:15:00Z,29.4012,-89.0355,1.0,30.785,11111222 
WAVCIS,ioos:station:WAVCIS:CSI16:1,2009-09-03T10:30:00Z,29.4012,-89.0355,1.0,30.62,11111222 
WAVCIS,ioos:station:WAVCIS:CSI16:1,2009-09-03T10:45:00Z,29.4012,-89.0355,1.0,30.562,11111222 
WAVCIS,ioos:station:WAVCIS:CSI16:1,2009-09-03T11:00:00Z,29.4012,-89.0355,1.0,30.632,11111222 
WAVCIS,ioos:station:WAVCIS:CSI16:1,2009-09-03T11:15:00Z,29.4012,-89.0355,1.0,30.632,11111222 
WAVCIS,ioos:station:WAVCIS:CSI16:1,2009-09-03T11:30:00Z,29.4012,-89.0355,1.0,30.598,11111222 
WAVCIS,ioos:station:WAVCIS:CSI16:1,2009-09-03T11:45:00Z,29.4012,-89.0355,1.0,30.623,11111222 
WAVCIS,ioos:station:WAVCIS:CSI16:1,2009-09-03T12:00:00Z,29.4012,-89.0355,1.0,30.613,11111222 
WAVCIS,ioos:station:WAVCIS:CSI16:1,2009-09-03T12:15:00Z,29.4012,-89.0355,1.0,30.582,11111222 
WAVCIS,ioos:station:WAVCIS:CSI16:1,2009-09-03T12:30:00Z,29.4012,-89.0355,1.0,30.58,11111222 
WAVCIS,ioos:station:WAVCIS:CSI16:1,2009-09-03T12:45:00Z,29.4012,-89.0355,1.0,30.56,11111222 
WAVCIS,ioos:station:WAVCIS:CSI16:1,2009-09-03T13:00:00Z,29.4012,-89.0355,1.0,30.524,11111222 
WAVCIS,ioos:station:WAVCIS:CSI16:1,2009-09-03T13:15:00Z,29.4012,-89.0355,1.0,30.526,11111222 
WAVCIS,ioos:station:WAVCIS:CSI16:1,2009-09-03T13:30:00Z,29.4012,-89.0355,1.0,30.561,11111222 
WAVCIS,ioos:station:WAVCIS:CSI16:1,2009-09-03T13:45:00Z,29.4012,-89.0355,1.0,30.538,11111222 
WAVCIS,ioos:station:WAVCIS:CSI16:1,2009-09-03T14:00:00Z,29.4012,-89.0355,1.0,30.523,11111222 
WAVCIS,ioos:station:WAVCIS:CSI16:1,2009-09-03T14:15:00Z,29.4012,-89.0355,1.0,30.518,11111222 
WAVCIS,ioos:station:WAVCIS:CSI16:1,2009-09-03T14:30:00Z,29.4012,-89.0355,1.0,30.533,11111222 
WAVCIS,ioos:station:WAVCIS:CSI16:1,2009-09-03T14:45:00Z,29.4012,-89.0355,1.0,30.551,11111222 
WAVCIS,ioos:station:WAVCIS:CSI16:1,2009-09-03T15:00:00Z,29.4012,-89.0355,1.0,30.538,11111222 
WAVCIS,ioos:station:WAVCIS:CSI16:1,2009-09-03T15:15:00Z,29.4012,-89.0355,1.0,30.555,11111222 
WAVCIS,ioos:station:WAVCIS:CSI16:1,2009-09-03T15:30:00Z,29.4012,-89.0355,1.0,30.556,11111222 
WAVCIS,ioos:station:WAVCIS:CSI16:1,2009-09-03T15:45:00Z,29.4012,-89.0355,1.0,30.555,11111222 
WAVCIS,ioos:station:WAVCIS:CSI16:1,2009-09-03T16:00:00Z,29.4012,-89.0355,1.0,30.596,11111222 
WAVCIS,ioos:station:WAVCIS:CSI16:1,2009-09-03T16:15:00Z,29.4012,-89.0355,1.0,30.638,11111222 
WAVCIS,ioos:station:WAVCIS:CSI16:1,2009-09-03T16:30:00Z,29.4012,-89.0355,1.0,30.614,11111222 
WAVCIS,ioos:station:WAVCIS:CSI16:1,2009-09-03T16:45:00Z,29.4012,-89.0355,1.0,30.635,11111222 
WAVCIS,ioos:station:WAVCIS:CSI16:1,2009-09-03T17:00:00Z,29.4012,-89.0355,1.0,30.643,11111222 
WAVCIS,ioos:station:WAVCIS:CSI16:1,2009-09-03T17:15:00Z,29.4012,-89.0355,1.0,30.658,11111222 
WAVCIS,ioos:station:WAVCIS:CSI16:1,2009-09-03T17:30:00Z,29.4012,-89.0355,1.0,30.652,11111222 
WAVCIS,ioos:station:WAVCIS:CSI16:1,2009-09-03T17:45:00Z,29.4012,-89.0355,1.0,30.655,11111222 
WAVCIS,ioos:station:WAVCIS:CSI16:1,2009-09-03T18:00:00Z,29.4012,-89.0355,1.0,30.656,11111222 
WAVCIS,ioos:station:WAVCIS:CSI16:1,2009-09-03T18:15:00Z,29.4012,-89.0355,1.0,30.67,11111222 
WAVCIS,ioos:station:WAVCIS:CSI16:1,2009-09-03T18:30:00Z,29.4012,-89.0355,1.0,30.742,11111222 
WAVCIS,ioos:station:WAVCIS:CSI16:1,2009-09-03T18:45:00Z,29.4012,-89.0355,1.0,30.758,11111222 
WAVCIS,ioos:station:WAVCIS:CSI16:1,2009-09-03T19:00:00Z,29.4012,-89.0355,1.0,30.781,11111222 
WAVCIS,ioos:station:WAVCIS:CSI16:1,2009-09-03T19:15:00Z,29.4012,-89.0355,1.0,30.828,11111222 
WAVCIS,ioos:station:WAVCIS:CSI16:1,2009-09-03T19:30:00Z,29.4012,-89.0355,1.0,30.84,11111222 
WAVCIS,ioos:station:WAVCIS:CSI16:1,2009-09-03T19:45:00Z,29.4012,-89.0355,1.0,30.882,11111222 
WAVCIS,ioos:station:WAVCIS:CSI16:1,2009-09-03T20:00:00Z,29.4012,-89.0355,1.0,30.953,11111222 
WAVCIS,ioos:station:WAVCIS:CSI16:1,2009-09-03T20:15:00Z,29.4012,-89.0355,1.0,31.016,11111222 
WAVCIS,ioos:station:WAVCIS:CSI16:1,2009-09-03T20:30:00Z,29.4012,-89.0355,1.0,31.106,11111222 
WAVCIS,ioos:station:WAVCIS:CSI16:1,2009-09-03T20:45:00Z,29.4012,-89.0355,1.0,31.177,11111222 
WAVCIS,ioos:station:WAVCIS:CSI16:1,2009-09-03T21:00:00Z,29.4012,-89.0355,1.0,31.206,11111222 
WAVCIS,ioos:station:WAVCIS:CSI16:1,2009-09-03T21:15:00Z,29.4012,-89.0355,1.0,31.126,11111222 
WAVCIS,ioos:station:WAVCIS:CSI16:1,2009-09-03T21:30:00Z,29.4012,-89.0355,1.0,31.131,11111222 
WAVCIS,ioos:station:WAVCIS:CSI16:1,2009-09-03T21:45:00Z,29.4012,-89.0355,1.0,31.178,11111222 
WAVCIS,ioos:station:WAVCIS:CSI16:1,2009-09-03T22:00:00Z,29.4012,-89.0355,1.0,31.214,11111222 
WAVCIS,ioos:station:WAVCIS:CSI16:1,2009-09-03T22:15:00Z,29.4012,-89.0355,1.0,31.253,11111222 
WAVCIS,ioos:station:WAVCIS:CSI16:1,2009-09-03T22:30:00Z,29.4012,-89.0355,1.0,31.269,11111222 
WAVCIS,ioos:station:WAVCIS:CSI16:1,2009-09-03T22:45:00Z,29.4012,-89.0355,1.0,31.271,11111222 
WAVCIS,ioos:station:WAVCIS:CSI16:1,2009-09-03T23:00:00Z,29.4012,-89.0355,1.0,31.281,11111222 
WAVCIS,ioos:station:WAVCIS:CSI16:1,2009-09-03T23:15:00Z,29.4012,-89.0355,1.0,31.317,11111222 
WAVCIS,ioos:station:WAVCIS:CSI16:1,2009-09-03T23:30:00Z,29.4012,-89.0355,1.0,31.38,11111222 
WAVCIS,ioos:station:WAVCIS:CSI16:1,2009-09-03T23:45:00Z,29.4012,-89.0355,1.0,31.468,11111222 
WAVCIS,ioos:station:WAVCIS:CSI16:1,2009-09-04T00:00:00Z,29.4012,-89.0355,1.0,31.505,11111222 
WAVCIS,ioos:station:WAVCIS:CSI16:1,2009-09-04T00:15:00Z,29.4012,-89.0355,1.0,31.49,11111222 
WAVCIS,ioos:station:WAVCIS:CSI16:1,2009-09-04T00:30:00Z,29.4012,-89.0355,1.0,31.496,11111222 
WAVCIS,ioos:station:WAVCIS:CSI16:1,2009-09-04T00:45:00Z,29.4012,-89.0355,1.0,31.498,11111222 
WAVCIS,ioos:station:WAVCIS:CSI16:1,2009-09-04T01:00:00Z,29.4012,-89.0355,1.0,31.503,11111222 
WAVCIS,ioos:station:WAVCIS:CSI16:1,2009-09-04T01:15:00Z,29.4012,-89.0355,1.0,31.516,11111222 
WAVCIS,ioos:station:WAVCIS:CSI16:1,2009-09-04T01:30:00Z,29.4012,-89.0355,1.0,31.625,11111222 
WAVCIS,ioos:station:WAVCIS:CSI16:1,2009-09-04T01:45:00Z,29.4012,-89.0355,1.0,31.683,11111222 
WAVCIS,ioos:station:WAVCIS:CSI16:1,2009-09-04T02:00:00Z,29.4012,-89.0355,1.0,31.779,11111222 
WAVCIS,ioos:station:WAVCIS:CSI16:1,2009-09-04T02:15:00Z,29.4012,-89.0355,1.0,31.86,11111222 
WAVCIS,ioos:station:WAVCIS:CSI16:1,2009-09-04T02:30:00Z,29.4012,-89.0355,1.0,31.85,11111222 
WAVCIS,ioos:station:WAVCIS:CSI16:1,2009-09-04T02:45:00Z,29.4012,-89.0355,1.0,31.846,11111222 
WAVCIS,ioos:station:WAVCIS:CSI16:1,2009-09-04T03:00:00Z,29.4012,-89.0355,1.0,31.844,11111222 
WAVCIS,ioos:station:WAVCIS:CSI16:1,2009-09-04T03:15:00Z,29.4012,-89.0355,1.0,31.846,11111222 
WAVCIS,ioos:station:WAVCIS:CSI16:1,2009-09-04T03:30:00Z,29.4012,-89.0355,1.0,31.846,11111222 
WAVCIS,ioos:station:WAVCIS:CSI16:1,2009-09-04T03:45:00Z,29.4012,-89.0355,1.0,31.846,11111222 
WAVCIS,ioos:station:WAVCIS:CSI16:1,2009-09-04T04:00:00Z,29.4012,-89.0355,1.0,31.854,11111222 
WAVCIS,ioos:station:WAVCIS:CSI16:1,2009-09-04T04:15:00Z,29.4012,-89.0355,1.0,31.866,11111222 
WAVCIS,ioos:station:WAVCIS:CSI16:1,2009-09-04T04:30:00Z,29.4012,-89.0355,1.0,31.865,11111222 
WAVCIS,ioos:station:WAVCIS:CSI16:1,2009-09-04T04:45:00Z,29.4012,-89.0355,1.0,31.847,11111222 
WAVCIS,ioos:station:WAVCIS:CSI16:1,2009-09-04T05:00:00Z,29.4012,-89.0355,1.0,31.826,11111222 
WAVCIS,ioos:station:WAVCIS:CSI16:1,2009-09-04T05:15:00Z,29.4012,-89.0355,1.0,31.83,11111222 
WAVCIS,ioos:station:WAVCIS:CSI16:1,2009-09-04T05:30:00Z,29.4012,-89.0355,1.0,31.784,11111222 
WAVCIS,ioos:station:WAVCIS:CSI16:1,2009-09-04T05:45:00Z,29.4012,-89.0355,1.0,31.794,11111222 
WAVCIS,ioos:station:WAVCIS:CSI16:1,2009-09-04T06:00:00Z,29.4012,-89.0355,1.0,31.837,11111222 
WAVCIS,ioos:station:WAVCIS:CSI16:1,2009-09-04T06:15:00Z,29.4012,-89.0355,1.0,31.855,11111222 
WAVCIS,ioos:station:WAVCIS:CSI16:1,2009-09-04T06:30:00Z,29.4012,-89.0355,1.0,31.857,11111222 
WAVCIS,ioos:station:WAVCIS:CSI16:1,2009-09-04T06:45:00Z,29.4012,-89.0355,1.0,31.804,11111222 
WAVCIS,ioos:station:WAVCIS:CSI16:1,2009-09-04T07:00:00Z,29.4012,-89.0355,1.0,31.801,11111222 
WAVCIS,ioos:station:WAVCIS:CSI16:1,2009-09-04T07:15:00Z,29.4012,-89.0355,1.0,31.773,11111222 
WAVCIS,ioos:station:WAVCIS:CSI16:1,2009-09-04T07:30:00Z,29.4012,-89.0355,1.0,31.751,11111222 
WAVCIS,ioos:station:WAVCIS:CSI16:1,2009-09-04T07:45:00Z,29.4012,-89.0355,1.0,31.741,11111222 
WAVCIS,ioos:station:WAVCIS:CSI16:1,2009-09-04T08:00:00Z,29.4012,-89.0355,1.0,31.675,11111222 
WAVCIS,ioos:station:WAVCIS:CSI16:1,2009-09-04T08:15:00Z,29.4012,-89.0355,1.0,31.729,11111222 
WAVCIS,ioos:station:WAVCIS:CSI16:1,2009-09-04T08:30:00Z,29.4012,-89.0355,1.0,31.731,11111222 
WAVCIS,ioos:station:WAVCIS:CSI16:1,2009-09-04T08:45:00Z,29.4012,-89.0355,1.0,31.703,11111222 
WAVCIS,ioos:station:WAVCIS:CSI16:1,2009-09-04T09:00:00Z,29.4012,-89.0355,1.0,31.779,11111222 
WAVCIS,ioos:station:WAVCIS:CSI16:1,2009-09-04T09:15:00Z,29.4012,-89.0355,1.0,31.698,11111222 
WAVCIS,ioos:station:WAVCIS:CSI16:1,2009-09-04T09:30:00Z,29.4012,-89.0355,1.0,31.774,11111222 
WAVCIS,ioos:station:WAVCIS:CSI16:1,2009-09-04T09:45:00Z,29.4012,-89.0355,1.0,31.69,11111222 
WAVCIS,ioos:station:WAVCIS:CSI16:1,2009-09-04T10:00:00Z,29.4012,-89.0355,1.0,31.66,11111222 
WAVCIS,ioos:station:WAVCIS:CSI16:1,2009-09-04T10:15:00Z,29.4012,-89.0355,1.0,31.708,11111222 
WAVCIS,ioos:station:WAVCIS:CSI16:1,2009-09-04T10:30:00Z,29.4012,-89.0355,1.0,31.696,11111222 
WAVCIS,ioos:station:WAVCIS:CSI16:1,2009-09-04T10:45:00Z,29.4012,-89.0355,1.0,31.669,11111222 
WAVCIS,ioos:station:WAVCIS:CSI16:1,2009-09-04T11:00:00Z,29.4012,-89.0355,1.0,31.706,11111222 
WAVCIS,ioos:station:WAVCIS:CSI16:1,2009-09-04T11:15:00Z,29.4012,-89.0355,1.0,31.647,11111222 
WAVCIS,ioos:station:WAVCIS:CSI16:1,2009-09-04T11:30:00Z,29.4012,-89.0355,1.0,31.625,11111222 
WAVCIS,ioos:station:WAVCIS:CSI16:1,2009-09-04T11:45:00Z,29.4012,-89.0355,1.0,31.629,11111222 
WAVCIS,ioos:station:WAVCIS:CSI16:1,2009-09-04T12:00:00Z,29.4012,-89.0355,1.0,31.5,11111222 
WAVCIS,ioos:station:WAVCIS:CSI16:1,2009-09-04T12:15:00Z,29.4012,-89.0355,1.0,31.553,11111222 